SCP
0 0 0 0 0 0 -0 -0 -0 -0 0 0 0 0 0 0 0 0 0 0 0 0 0 0 0 0 0 0 0 0 0 0 0 0 0 0 0 0 0 0 0 0 0 0 0 0 0 0 0
0 0 0 0 0 0 -0 0 0 0 0 0 0 0 0 0 0 0 0 0 0 0 0 0 0 0 0 0 0 0 0 0 0 0 0 0 0 0 0 0 0 0 0 0 0 0 0 0 0
0 0 0 0 0 0 -0 0 0 0 0 0 0 0 0 0 0 0 0 0 0 0 0 0 0 0 0 0 0 0 0 0 0 0 0 0 0 0 0 0 0 0 0 0 0 0 0 0 0
0 0 0 0 0 0 0 0 0 0 0 0 0 0 0 0 0 0 0 0 0 0 0 0 0 0 0 0 0 0 0 0 0 0 0 0 0 0 0 0 0 0 0 0 0 0 0 0 0
0 0 0 0 0 0 0 0 0 0 0 0 0 0 0 0 0 0 0 0 0 0 0 0 0 0 0 0 0 0 0 0 0 0 0 0 0 0 0 0 0 0 0 0 0 0 0 0 0
0 0 0 0 0 0 0 0 0 0 0 0 0 0 0 0 0 0 0 0 0 0 0 0 0 0 0 0 0 0 0 0 0 0 0 0 0 0 0 0 0 0 0 0 0 0 0 0 0
0 0 0 0 0 0 0 0 0 0 0 0 0 0 0 0 0 0 0 0 0 0 0 0 0 0 0 0 0 0 0 0 0 0 0 0 0 0 0 0 0 0 0 0 0 0 0 0 0
0 0 0 0 0 0 0 0 0 0 0 0 0 0 0 0 0 0 0 0 0 0 0 0 0 0 0 0 0 0 0 0 0 0 0 0 0 0 0 0 0 0 0 0 0 0 0 0 0
0 0 0 0 0 0 0 0 0 0 0 0 0 0 0 0 0 0 0 0 0 0 0 0 0 0 0 0 0 0 0 0 0 0 0 0 0 0 0 0 0 0 0 0 0 0 0 0 0
0 0 0 0 0 0 0 0 0 0 0 0 0 0 0 0 0 0 0 0 0 0 0 0 0 0 0 0 0 0 0 0 0 0 0 0 0 0 0 0 0 0 0 0 0 0 0 0 0
0 0 0 0 0 0 0 0 0 0 0 0 0 0 0 0 0 0 0 0 0 0 0 0 0 0 0 0 0 0 0 0 0 0 0 0 0 0 0 0 0 0 0 0 0 0 0 0 0
0 0 0 0 0 0 0 0 0 0 0 0 0 0 0 0 0 0 0 0 0 0 0 0 0 0 0 0 0 0 0 0 0 0 0 0 0 0 0 0 0 0 0 0 0 0 0 0 0
0 0 0 0 0 0 0 0 0 0 0 0 0 0 0 0 0 0 0 0 0 0 0 0 0 0 0 0 0 0 0 0 0 0 0 0 0 0 0 0 0 0 0 0 0 0 0 0 0
0 0 0 0 0 0 0 0 0 0 0 0 0 0 0 0 0 0 0 0 0 0 0 0 0 0 0 0 0 0 0 0 0 0 0 0 0 0 0 0 0 0 0 0 0 0 0 0 0
0 0 0 0 0 0 0 0 0 0 0 0 0 0 0 0 0 0 0 0 0 0 0 0 0 0 0 0 0 0 0 0 0 0 0 0 0 0 0 0 0 0 0 0 0 0 0 0 0
0 0 0 0 0 0 0 0 0 0 0 0 0 0 0 0 0 0 0 0 0 0 0 0 0 0 0 0 0 0 0 0 0 0 0 0 0 0 0 0 0 0 0 0 0 0 0 0 0
0 0 0 0 0 0 0 0 0 0 0 0 0 0 0 0 0 0 0 0 0 0 0 0 0 0 0 0 0 0 0 0 0 0 0 0 0 0 0 0 0 0 0 0 0 0 0 0 0
0 0 0 0 0 0 0 0 0 0 0 0 0 0 0 0 0 0 0 0 0 0 0 0 0 0 0 0 0 0 0 0 0 0 0 0 0 0 0 0 0 0 0 0 0 0 0 0 0
0 0 0 0 0 0 0 0 0 0 0 0 0 0 0 0 0 0 0 0 0 0 0 0 0 0 0 0 0 0 0 0 0 0 0 0 0 0 0 0 0 0 0 0 0 0 0 0 0
0 0 0 0 0 0 0 0 0 0 0 0 0 0 0 0 0 0 0 0 0 0 0 0 0 0 0 0 0 0 0 0 0 0 0 0 0 0 0 0 0 0 0 0 0 0 0 0 0
0 0 0 0 0 0 0 0 0 0 0 0 0 0 0 0 0 0 0 0 0 0 0 0 0 0 0 0 0 0 0 0 0 0 0 0 0 0 0 0 0 0 0 0 0 0 0 0 0
0 0 0 0 0 0 0 0 0 0 0 0 0 0 0 0 0 0 0 0 0 0 0 0 0 0 0 0 0 0 0 0 0 0 0 0 0 0 0 0 0 0 0 0 0 0 0 0 0
0 0 0 0 0 0 0 0 0 0 0 0 0 0 0 0 0 0 0 0 0 0 0 0 0 0 0 0 0 0 0 0 0 0 0 0 0 0 0 0 0 0 0 0 0 0 0 0 0
0 0 0 0 0 0 0 0 0 0 0 0 0 0 0 0 0 0 0 0 0 0 0 0 0 0 0 0 0 0 0 0 0 0 0 0 0 0 0 0 0 0 0 0 0 0 0 0 0
0 0 0 0 0 0 0 0 0 0 0 0 0 0 0 0 0 0 0 0 0 0 0 0 0 0 0 0 0 0 0 0 0 0 0 0 0 0 0 0 0 0 0 0 0 0 0 0 0
0 0 0 0 0 0 0 0 0 0 0 0 0 0 0 0 0 0 0 0 0 0 0 0 0 0 0 0 0 0 0 0 0 0 0 0 0 0 0 0 0 0 0 0 0 0 0 0 0
0 0 0 0 0 0 0 0 0 0 0 0 0 0 0 0 0 0 0 0 0 0 0 0 0 0 0 0 0 0 0 0 0 0 0 0 0 0 0 0 0 0 0 0 0 0 0 0 0
0 0 0 0 0 0 0 0 0 0 0 0 0 0 0 0 0 0 0 0 0 0 0 0 0 0 0 0 0 0 0 0 0 0 0 0 0 0 0 0 0 0 0 0 0 0 0 0 0
0 0 0 0 0 0 0 0 0 0 0 0 0 0 0 0 0 0 0 0 0 0 0 0 0 0 0 0 0 0 0 0 0 0 0 0 0 0 0 0 0 0 0 0 0 0 0 0 0
0 0 0 0 0 0 0 0 0 0 0 0 0 0 0 0 0 0 0 0 0 0 0 0 0 0 0 0 0 0 0 0 0 0 0 0 0 0 0 0 0 0 0 0 0 0 0 0 0
Wind_Speed
0 1 2 2 1 1 3 4 5 6 5 3 3 2 2 1 1 4 7 12 13 13 11 11 10 10 11 10 10 10 11 13 14 14 13 14 14 14 14 15 15 16 16 17 17 17 17 17 17
2 2 1 1 3 3 4 6 7 6 5 6 4 2 3 3 4 6 9 12 13 12 11 10 11 11 11 10 10 10 12 13 13 14 13 13 14 14 14 14 14 15 16 16 16 16 16 16 16
1 2 1 1 2 2 3 7 8 6 6 3 4 2 1 4 5 8 9 14 13 11 10 11 10 11 11 11 10 11 12 12 13 13 13 13 13 13 13 13 13 14 15 15 15 15 16 15 16
1 1 0 3 2 0 0 5 9 10 6 2 3 4 3 3 4 7 12 14 13 12 11 11 10 11 11 11 11 11 12 12 12 13 13 13 13 13 13 12 12 13 13 14 14 14 15 15 15
0 1 2 2 2 1 1 4 10 10 8 5 4 4 5 4 4 9 14 14 13 12 10 11 9 10 10 10 11 11 11 12 12 13 13 13 12 12 12 12 11 12 12 13 13 14 14 14 14
2 2 4 4 3 2 2 6 9 7 6 4 5 5 6 4 7 12 14 13 12 11 10 11 9 8 8 9 9 10 11 11 12 12 12 12 11 11 11 11 11 11 12 12 13 13 13 13 13
3 3 3 3 3 4 5 7 8 8 7 5 5 5 6 7 8 12 13 12 11 11 10 10 10 9 8 7 8 8 9 10 11 11 11 10 10 10 9 9 10 10 11 12 12 12 12 12 12
2 3 3 4 5 5 7 7 3 5 4 4 4 4 6 10 11 12 12 11 10 10 9 9 9 9 9 9 8 8 8 9 10 10 10 10 9 9 8 7 8 9 10 11 11 11 11 11 11
4 5 5 5 6 6 9 7 4 1 5 4 3 1 4 12 14 13 11 10 10 9 9 9 9 9 8 8 8 8 8 9 10 9 9 7 7 7 6 8 8 9 9 10 10 10 11 9 9
6 6 5 3 3 6 11 8 9 7 6 6 5 4 6 13 15 16 14 14 13 12 11 9 9 9 8 6 7 6 6 7 6 6 7 5 5 4 5 8 8 8 8 9 9 9 8 4 5
7 6 4 3 3 5 10 7 7 7 6 7 8 11 12 14 15 16 16 15 14 13 11 10 9 9 8 6 5 4 4 5 5 7 6 5 5 4 4 4 5 6 6 5 6 5 3 3 2
6 3 3 4 4 6 9 9 7 8 2 2 2 9 14 17 18 18 17 15 13 13 13 11 10 9 9 7 6 5 4 4 4 6 7 5 4 4 4 3 4 4 3 4 4 3 3 3 3
5 5 3 4 5 5 6 6 4 7 5 1 2 9 14 17 17 16 14 14 13 14 13 13 12 11 9 8 6 6 6 5 5 5 6 6 5 5 5 4 4 4 4 4 4 3 4 4 4
6 7 6 4 5 4 5 3 3 4 3 5 5 9 12 15 15 14 15 15 15 14 14 13 13 12 11 9 7 6 6 5 6 6 7 8 5 5 5 5 5 4 4 4 4 4 4 4 4
6 8 5 3 3 3 4 5 8 3 3 6 7 7 9 12 13 15 16 16 16 14 14 14 13 13 12 11 10 7 6 6 6 6 7 8 7 7 6 5 5 5 5 5 4 5 4 4 5
6 7 7 3 2 2 6 9 4 2 5 7 7 7 9 11 14 14 14 14 14 14 14 14 11 13 13 12 10 8 7 8 7 6 7 9 9 8 6 5 6 5 5 5 5 5 5 5 5
7 9 10 5 2 3 7 8 2 2 3 7 7 8 8 10 13 14 14 14 14 14 14 15 15 15 14 12 10 9 8 8 7 7 7 8 9 9 8 6 5 6 5 5 5 5 6 6 7
11 8 8 9 5 5 7 11 6 4 5 7 7 7 8 10 12 11 12 13 13 14 14 15 15 15 13 10 9 7 8 8 7 7 8 9 9 10 9 7 7 7 6 6 6 7 6 6 5
11 10 8 5 2 5 9 12 12 7 8 10 10 9 9 10 7 7 9 11 12 14 15 16 16 15 12 10 9 9 9 8 7 7 9 11 10 11 10 7 8 8 8 9 9 7 7 6 4
10 10 7 3 2 3 5 10 11 9 9 10 10 10 9 8 7 6 7 8 12 14 16 16 16 15 15 12 10 8 8 7 8 7 9 11 11 11 9 11 8 9 8 9 9 8 5 5 6
6 8 9 6 4 1 4 8 8 5 4 6 8 8 8 7 8 6 5 7 9 11 13 13 15 15 15 14 9 5 5 4 5 8 8 10 11 11 10 11 10 9 9 9 11 11 9 7 7
8 4 8 8 7 3 2 6 4 3 5 6 6 5 4 4 4 3 3 3 5 7 8 11 12 13 13 13 11 12 9 10 10 7 7 8 10 10 11 11 11 10 9 10 10 10 10 8 7
6 7 7 5 4 2 3 5 6 2 6 6 3 2 0 1 1 2 2 1 1 1 4 6 9 10 10 12 12 12 11 9 6 5 6 7 6 8 9 9 9 9 9 10 10 10 11 9 9
13 9 7 4 2 6 5 7 7 5 6 3 3 2 2 2 2 3 4 4 4 4 3 4 6 6 7 9 10 11 10 9 7 6 5 5 4 5 8 8 8 9 8 9 10 10 12 10 11
8 10 5 4 5 7 3 7 10 5 3 3 2 0 2 2 3 5 5 6 7 7 6 6 6 6 5 6 6 6 6 6 6 5 4 4 3 4 5 6 7 7 8 8 8 9 10 11 12
11 12 9 9 8 5 3 10 8 2 3 3 3 1 2 3 4 5 6 7 7 8 8 8 8 8 6 5 4 3 2 2 2 2 2 3 3 3 4 5 6 7 8 7 8 8 10 9 11
12 7 3 6 3 2 7 7 10 3 4 4 5 6 6 6 6 7 7 8 8 9 9 9 9 9 8 7 6 5 4 2 2 1 1 1 2 3 4 5 6 7 7 8 8 8 9 9 10
4 11 6 6 8 6 5 7 6 7 8 7 8 8 8 8 8 8 8 8 8 8 9 9 10 10 9 8 7 5 5 4 3 3 2 2 3 3 4 5 5 6 7 7 7 8 9 10 10
8 7 7 7 5 6 6 7 5 7 9 10 10 9 9 9 8 8 7 7 8 8 9 9 9 9 9 8 7 7 6 6 5 4 4 3 4 4 4 5 5 6 7 7 7 8 9 11 11
4 10 10 9 8 5 4 5 2 4 6 9 10 9 8 8 8 8 8 8 8 9 9 9 8 8 8 7 7 7 7 6 6 5 5 4 4 4 4 5 5 6 6 7 8 9 9 10 11
Wind_Direction
345 328 266 259 213 179 136 136 148 144 143 120 137 176 201 129 338 66 107 147 141 142 140 136 125 123 120 116 113 109 110 109 107 103 101 101 98 94 92 91 91 90 89 88 88 87 85 84 82
356 305 262 301 248 201 155 162 170 143 115 124 129 152 168 113 58 103 139 149 145 141 140 135 126 127 123 120 116 113 111 110 108 105 102 102 101 98 94 92 92 93 93 93 92 90 89 88 86
80 357 339 238 240 242 149 171 163 119 128 149 138 117 53 87 119 137 144 150 146 142 138 130 131 130 127 124 120 116 113 112 111 109 106 104 102 98 95 94 92 93 95 95 94 94 93 91 89
234 140 164 244 231 300 93 157 155 144 150 146 160 136 108 58 128 140 146 153 148 143 139 135 134 131 130 128 125 121 117 116 114 111 108 106 103 99 96 95 93 95 98 99 98 98 97 95 93
103 222 217 226 228 138 168 157 166 162 161 157 179 146 124 99 125 144 154 157 151 146 143 140 135 133 134 133 129 125 121 118 116 113 110 108 106 103 99 97 96 97 103 103 102 101 100 99 97
148 204 225 221 183 152 162 163 170 168 154 158 181 155 124 122 149 154 157 161 154 148 146 142 135 134 135 133 129 127 124 121 118 116 114 112 109 106 103 101 100 101 105 106 103 103 103 101 100
189 202 230 214 173 161 153 165 181 169 172 167 178 160 135 152 155 157 161 162 158 154 153 151 151 146 136 129 127 123 121 120 120 118 113 108 106 103 98 98 102 104 106 107 106 106 104 104 104
189 188 186 196 183 153 143 160 178 177 153 120 189 184 149 155 152 158 161 165 164 164 164 161 159 158 155 148 129 123 120 117 114 111 108 105 105 101 94 104 100 105 106 107 108 108 106 107 107
187 209 208 195 186 153 156 165 145 96 135 154 196 25 89 138 151 157 163 170 172 175 175 172 168 166 162 156 145 141 128 121 124 121 118 131 133 128 124 101 96 104 107 109 111 110 108 110 110
190 212 210 189 184 155 166 176 156 169 176 183 181 157 141 153 164 171 177 180 183 184 184 183 180 174 170 161 162 162 159 155 160 151 152 150 138 128 123 103 94 97 103 110 109 109 120 139 135
189 205 175 167 177 157 163 167 166 184 199 206 195 173 161 171 178 184 188 189 190 189 187 191 189 183 181 173 173 170 168 167 170 167 164 156 150 146 151 142 135 133 136 133 129 145 159 165 162
167 146 140 143 149 161 164 159 180 212 191 61 214 167 168 181 189 192 192 191 191 193 194 193 193 191 191 187 183 180 179 179 179 177 178 173 170 171 168 170 164 164 166 161 169 172 175 184 190
153 140 113 105 129 144 147 169 191 218 209 154 150 173 185 190 196 199 197 194 195 197 197 196 196 196 194 193 193 192 192 193 188 184 187 192 186 184 181 180 182 185 182 185 188 190 189 198 202
134 125 120 117 125 145 159 167 221 217 186 196 192 194 198 199 199 198 200 200 201 202 199 197 199 200 198 198 199 200 200 196 199 197 197 199 201 194 191 191 193 196 198 198 202 202 205 212 215
128 124 118 110 135 140 167 214 223 170 178 208 209 208 207 209 205 209 207 206 205 204 202 200 200 201 202 205 206 206 204 203 205 205 205 204 208 206 203 203 202 201 199 198 202 206 218 223 224
128 154 179 156 156 142 205 239 201 142 216 227 220 216 216 216 218 219 217 215 212 207 205 203 200 203 205 206 207 208 209 208 211 210 208 209 211 213 211 213 213 201 196 200 205 204 213 223 228
167 192 200 178 182 173 215 247 165 152 220 238 230 227 229 228 227 224 221 219 216 212 209 206 204 206 207 207 209 211 211 213 213 212 212 211 212 213 215 219 217 200 199 206 207 212 219 226 229
177 180 185 196 171 187 219 242 235 223 248 254 246 239 236 239 236 228 223 221 220 217 215 212 208 209 207 206 211 213 215 216 216 213 212 211 211 211 215 220 217 202 204 210 212 218 222 237 243
170 175 183 173 131 203 231 252 258 251 251 253 249 244 243 248 251 236 228 220 217 217 216 215 212 209 204 203 206 210 215 214 215 216 214 213 212 209 212 216 216 207 213 217 214 216 223 230 223
152 170 168 126 91 217 253 264 263 253 245 248 252 251 252 256 251 240 232 219 215 215 215 215 215 211 206 208 209 212 215 217 217 212 214 215 214 210 209 215 216 211 217 222 216 207 212 220 194
160 177 170 152 130 106 291 261 240 235 240 250 250 256 262 266 272 270 246 228 218 218 216 214 215 213 210 210 208 199 206 206 212 218 217 217 217 214 213 217 218 216 216 221 218 210 211 223 212
185 175 145 142 164 178 256 264 249 236 269 245 236 236 255 270 275 284 272 243 225 226 221 219 216 214 211 208 208 208 211 220 225 225 224 220 217 221 220 224 224 223 221 227 224 216 218 225 226
130 115 116 126 139 174 205 250 263 257 252 234 202 171 101 16 356 357 5 5 4 229 206 205 205 208 208 207 210 214 222 229 233 228 231 231 225 227 229 229 230 230 228 230 228 222 220 221 230
128 105 84 83 144 235 204 224 258 219 218 192 147 108 61 43 56 64 65 67 66 74 106 148 170 184 195 200 207 214 221 224 226 225 231 235 235 236 238 240 241 240 238 236 234 230 227 226 231
162 146 144 172 206 227 149 228 248 239 226 231 234 329 48 65 85 81 74 71 68 71 82 103 120 126 150 174 190 204 216 223 230 235 240 242 244 246 250 248 249 249 248 248 244 238 236 233 233
185 181 174 185 202 192 176 233 251 269 277 256 241 210 125 104 96 85 77 76 74 73 78 89 97 98 106 121 132 143 168 191 208 231 245 252 263 270 280 273 268 266 263 259 254 251 248 244 242
163 187 127 118 102 184 219 253 282 253 232 191 168 155 135 115 104 96 85 79 78 76 74 82 90 89 88 93 98 96 94 93 84 49 350 313 307 308 298 289 283 280 276 271 267 260 258 255 251
180 144 142 163 163 212 227 233 233 208 193 166 157 151 136 124 112 101 90 84 79 79 81 80 81 83 84 85 84 82 81 77 74 67 41 2 339 327 313 304 295 290 286 279 272 268 266 264 261
145 169 171 166 192 189 219 235 217 207 177 168 161 151 141 132 121 110 100 92 88 83 81 80 80 81 80 81 83 82 76 70 67 57 37 11 351 338 324 314 305 297 292 287 278 272 274 271 270
207 182 166 178 199 204 216 248 91 212 178 165 156 146 138 131 124 116 110 104 95 87 79 76 74 72 71 76 78 74 69 64 59 48 32 13 358 345 331 320 309 303 299 294 286 282 279 276 275